Time,TemperatureF,DewpointF,PressureIn,WindDirection,WindDirectionDegrees,WindSpeedMPH,WindSpeedGustMPH,Humidity,HourlyPrecipIn,Conditions,Clouds,dailyrainin,SoftwareType,DateUTC
2013-01-17 00:12:00,32.0,26.0,-100.00,North,5,10.0,16.0,78,-99.99,,,-99.99,,2013-01-17 05:12:00,
2013-01-17 00:22:00,32.0,26.0,-100.00,North,5,10.0,16.0,78,-99.99,,,-99.99,,2013-01-17 05:22:00,
2013-01-17 00:43:00,32.0,26.0,-100.00,North,5,9.0,13.0,79,-99.99,,,-99.99,,2013-01-17 05:43:00,
2013-01-17 00:52:00,32.0,26.0,-100.00,North,5,9.0,13.0,79,-99.99,,,-99.99,,2013-01-17 05:52:00,
2013-01-17 01:12:00,32.0,26.0,-100.00,North,5,5.0,9.0,80,-99.99,,,-99.99,,2013-01-17 06:12:00,
2013-01-17 01:22:00,32.0,26.0,-100.00,North,5,5.0,9.0,80,-99.99,,,-99.99,,2013-01-17 06:22:00,
2013-01-17 01:42:00,31.0,26.0,-100.00,North,5,7.0,11.0,81,-99.99,,,-99.99,,2013-01-17 06:42:00,
2013-01-17 01:52:00,31.0,26.0,-100.00,North,5,7.0,11.0,81,-99.99,,,-99.99,,2013-01-17 06:52:00,
2013-01-17 02:12:00,31.0,26.0,-100.00,North,5,5.0,9.0,82,-99.99,,,-99.99,,2013-01-17 07:12:00,
2013-01-17 02:22:00,31.0,26.0,-100.00,North,5,5.0,9.0,82,-99.99,,,-99.99,,2013-01-17 07:22:00,
2013-01-17 02:42:00,31.0,26.0,-100.00,North,5,4.0,7.0,83,-99.99,,,-99.99,,2013-01-17 07:42:00,
2013-01-17 02:52:00,31.0,26.0,-100.00,North,5,4.0,7.0,83,-99.99,,,-99.99,,2013-01-17 07:52:00,
2013-01-17 03:12:00,31.0,26.0,-100.00,North,5,6.0,9.0,84,-99.99,,,-99.99,,2013-01-17 08:12:00,
2013-01-17 03:22:00,31.0,26.0,-100.00,North,5,6.0,9.0,84,-99.99,,,-99.99,,2013-01-17 08:22:00,
2013-01-17 03:43:00,31.0,27.0,-100.00,North,5,7.0,9.0,84,-99.99,,,-99.99,,2013-01-17 08:43:00,
2013-01-17 03:52:00,31.0,27.0,-100.00,North,5,7.0,9.0,84,-99.99,,,-99.99,,2013-01-17 08:52:00,
2013-01-17 04:12:00,31.0,27.0,-100.00,North,5,5.0,7.0,84,-99.99,,,-99.99,,2013-01-17 09:12:00,
2013-01-17 04:22:00,31.0,27.0,-100.00,North,5,5.0,7.0,84,-99.99,,,-99.99,,2013-01-17 09:22:00,
2013-01-17 04:42:00,31.0,27.0,-100.00,North,5,4.0,6.0,86,-99.99,,,-99.99,,2013-01-17 09:42:00,
2013-01-17 04:52:00,31.0,27.0,-100.00,North,5,4.0,6.0,86,-99.99,,,-99.99,,2013-01-17 09:52:00,
2013-01-17 05:12:00,30.0,27.0,-100.00,North,5,2.0,4.0,88,-99.99,,,-99.99,,2013-01-17 10:12:00,
2013-01-17 05:22:00,30.0,27.0,-100.00,North,5,2.0,4.0,88,-99.99,,,-99.99,,2013-01-17 10:22:00,
2013-01-17 05:42:00,30.0,27.0,-100.00,North,5,2.0,3.0,90,-99.99,,,-99.99,,2013-01-17 10:42:00,
2013-01-17 05:51:00,30.0,28.0,-100.00,North,5,2.0,4.0,91,-99.99,,,-99.99,,2013-01-17 10:51:00,
2013-01-17 05:52:00,30.0,27.0,-100.00,North,5,2.0,3.0,90,-99.99,,,-99.99,,2013-01-17 10:52:00,
2013-01-17 06:12:00,30.0,27.0,-100.00,North,5,1.0,4.0,91,-99.99,,,-99.99,,2013-01-17 11:12:00,
2013-01-17 06:21:00,30.0,28.0,-100.00,North,5,2.0,4.0,92,-99.99,,,-99.99,,2013-01-17 11:21:00,
2013-01-17 06:23:00,30.0,27.0,-100.00,North,5,1.0,4.0,91,-99.99,,,-99.99,,2013-01-17 11:23:00,
2013-01-17 06:33:00,30.0,28.0,-100.00,North,5,2.0,4.0,91,-99.99,,,-99.99,,2013-01-17 11:33:00,
2013-01-17 06:43:00,30.0,28.0,-100.00,North,5,2.0,4.0,91,-99.99,,,-99.99,,2013-01-17 11:43:00,
2013-01-17 06:52:00,29.0,27.0,-100.00,North,5,2.0,4.0,92,-99.99,,,-99.99,,2013-01-17 11:52:00,
2013-01-17 07:03:00,30.0,28.0,-100.00,North,5,2.0,4.0,92,-99.99,,,-99.99,,2013-01-17 12:03:00,
2013-01-17 07:12:00,30.0,28.0,-100.00,North,5,2.0,4.0,92,-99.99,,,-99.99,,2013-01-17 12:12:00,
2013-01-17 07:20:00,29.0,28.0,-100.00,North,5,2.0,4.0,93,-99.99,,,-99.99,,2013-01-17 12:20:00,
2013-01-17 07:33:00,29.0,27.0,-100.00,North,5,2.0,4.0,92,-99.99,,,-99.99,,2013-01-17 12:33:00,
2013-01-17 07:43:00,29.0,27.0,-100.00,North,5,2.0,4.0,92,-99.99,,,-99.99,,2013-01-17 12:43:00,
2013-01-17 07:50:00,29.0,27.0,-100.00,North,5,3.0,5.0,94,-99.99,,,-99.99,,2013-01-17 12:50:00,
2013-01-17 08:03:00,29.0,28.0,-100.00,North,5,2.0,4.0,93,-99.99,,,-99.99,,2013-01-17 13:03:00,
2013-01-17 08:12:00,29.0,28.0,-100.00,North,5,2.0,4.0,93,-99.99,,,-99.99,,2013-01-17 13:12:00,
2013-01-17 08:33:00,29.0,27.0,-100.00,North,5,3.0,5.0,94,-99.99,,,-99.99,,2013-01-17 13:33:00,
2013-01-17 08:43:00,29.0,27.0,-100.00,North,5,3.0,5.0,94,-99.99,,,-99.99,,2013-01-17 13:43:00,
2013-01-17 09:43:00,28.0,27.0,-100.00,North,5,3.0,4.0,95,-99.99,,,-99.99,,2013-01-17 14:43:00,
2013-01-17 09:53:00,28.0,27.0,-100.00,North,5,3.0,4.0,95,-99.99,,,-99.99,,2013-01-17 14:53:00,
2013-01-17 11:52:00,38.0,29.0,-100.00,North,5,7.0,12.0,70,-99.99,,,-99.99,,2013-01-17 16:52:00,
2013-01-17 12:33:00,38.0,29.0,-100.00,North,5,7.0,12.0,70,-99.99,,,-99.99,,2013-01-17 17:33:00,
2013-01-17 12:43:00,38.0,29.0,-100.00,North,5,7.0,12.0,70,-99.99,,,-99.99,,2013-01-17 17:43:00,
2013-01-17 13:22:00,39.0,24.0,-100.00,North,5,13.0,18.0,54,-99.99,,,-99.99,,2013-01-17 18:22:00,
2013-01-17 13:52:00,38.0,22.0,-100.00,North,5,15.0,19.0,50,-99.99,,,-99.99,,2013-01-17 18:52:00,
2013-01-17 14:04:00,39.0,24.0,-100.00,North,5,13.0,18.0,54,-99.99,,,-99.99,,2013-01-17 19:04:00,
2013-01-17 14:13:00,39.0,24.0,-100.00,North,5,13.0,18.0,54,-99.99,,,-99.99,,2013-01-17 19:13:00,
2013-01-17 14:21:00,39.0,21.0,-100.00,North,5,12.0,18.0,49,-99.99,,,-99.99,,2013-01-17 19:21:00,
2013-01-17 14:33:00,38.0,22.0,-100.00,North,5,15.0,19.0,50,-99.99,,,-99.99,,2013-01-17 19:33:00,
2013-01-17 14:43:00,38.0,22.0,-100.00,North,5,15.0,19.0,50,-99.99,,,-99.99,,2013-01-17 19:43:00,
2013-01-17 15:03:00,39.0,21.0,-100.00,North,5,12.0,18.0,49,-99.99,,,-99.99,,2013-01-17 20:03:00,
2013-01-17 15:13:00,39.0,21.0,-100.00,North,5,12.0,18.0,49,-99.99,,,-99.99,,2013-01-17 20:13:00,
2013-01-17 15:22:00,38.0,20.0,-100.00,North,5,9.0,24.0,49,-99.99,,,-99.99,,2013-01-17 20:22:00,
2013-01-17 16:03:00,38.0,20.0,-100.00,North,5,9.0,24.0,49,-99.99,,,-99.99,,2013-01-17 21:03:00,
2013-01-17 16:13:00,38.0,20.0,-100.00,North,5,9.0,24.0,49,-99.99,,,-99.99,,2013-01-17 21:13:00,
2013-01-17 16:21:00,35.0,19.0,-100.00,North,5,16.0,22.0,51,-99.99,,,-99.99,,2013-01-17 21:21:00,
2013-01-17 16:51:00,33.0,18.0,-100.00,North,5,12.0,18.0,53,-99.99,,,-99.99,,2013-01-17 21:51:00,
2013-01-17 17:04:00,35.0,19.0,-100.00,North,5,16.0,22.0,51,-99.99,,,-99.99,,2013-01-17 22:04:00,
2013-01-17 17:12:00,35.0,19.0,-100.00,North,5,16.0,22.0,51,-99.99,,,-99.99,,2013-01-17 22:12:00,
2013-01-17 17:33:00,33.0,18.0,-100.00,North,5,12.0,18.0,53,-99.99,,,-99.99,,2013-01-17 22:33:00,
2013-01-17 17:43:00,33.0,18.0,-100.00,North,5,12.0,18.0,53,-99.99,,,-99.99,,2013-01-17 22:43:00,
2013-01-17 17:53:00,30.0,17.0,-100.00,North,5,13.0,22.0,58,-99.99,,,-99.99,,2013-01-17 22:53:00,
2013-01-17 18:03:00,31.0,17.0,-100.00,North,5,14.0,21.0,54,-99.99,,,-99.99,,2013-01-17 23:03:00,
2013-01-17 18:12:00,31.0,17.0,-100.00,North,5,14.0,21.0,54,-99.99,,,-99.99,,2013-01-17 23:12:00,
2013-01-17 18:23:00,31.0,17.0,-100.00,North,5,14.0,21.0,54,-99.99,,,-99.99,,2013-01-17 23:23:00,
2013-01-17 18:33:00,30.0,17.0,-100.00,North,5,13.0,22.0,58,-99.99,,,-99.99,,2013-01-17 23:33:00,
2013-01-17 18:43:00,30.0,17.0,-100.00,North,5,13.0,22.0,58,-99.99,,,-99.99,,2013-01-17 23:43:00,
2013-01-17 19:03:00,29.0,17.0,-100.00,North,5,12.0,18.0,61,-99.99,,,-99.99,,2013-01-18 00:03:00,
2013-01-17 19:12:00,29.0,17.0,-100.00,North,5,12.0,18.0,61,-99.99,,,-99.99,,2013-01-18 00:12:00,
2013-01-17 19:22:00,26.0,17.0,-100.00,North,5,11.0,18.0,67,-99.99,,,-99.99,,2013-01-18 00:22:00,
2013-01-17 19:33:00,27.0,17.0,-100.00,North,5,10.0,16.0,64,-99.99,,,-99.99,,2013-01-18 00:33:00,
2013-01-17 19:43:00,27.0,17.0,-100.00,North,5,10.0,16.0,64,-99.99,,,-99.99,,2013-01-18 00:43:00,
2013-01-17 19:52:00,27.0,17.0,-100.00,North,5,10.0,16.0,64,-99.99,,,-99.99,,2013-01-18 00:52:00,
2013-01-17 20:03:00,26.0,17.0,-100.00,North,5,11.0,18.0,67,-99.99,,,-99.99,,2013-01-18 01:03:00,
2013-01-17 20:13:00,26.0,17.0,-100.00,North,5,11.0,18.0,67,-99.99,,,-99.99,,2013-01-18 01:13:00,
2013-01-17 20:23:00,25.0,15.0,-100.00,North,5,10.0,15.0,65,-99.99,,,-99.99,,2013-01-18 01:23:00,
2013-01-17 20:43:00,25.0,16.0,-100.00,North,5,9.0,16.0,66,-99.99,,,-99.99,,2013-01-18 01:43:00,
2013-01-17 20:52:00,25.0,16.0,-100.00,North,5,9.0,16.0,66,-99.99,,,-99.99,,2013-01-18 01:52:00,
2013-01-17 21:03:00,25.0,15.0,-100.00,North,5,10.0,15.0,65,-99.99,,,-99.99,,2013-01-18 02:03:00,
2013-01-17 21:12:00,25.0,15.0,-100.00,North,5,10.0,15.0,65,-99.99,,,-99.99,,2013-01-18 02:12:00,
2013-01-17 21:52:00,23.0,14.0,-100.00,North,5,4.0,7.0,68,-99.99,,,-99.99,,2013-01-18 02:52:00,
2013-01-17 22:13:00,24.0,14.0,-100.00,North,5,6.0,9.0,65,-99.99,,,-99.99,,2013-01-18 03:13:00,
2013-01-17 22:23:00,24.0,14.0,-100.00,North,5,6.0,9.0,65,-99.99,,,-99.99,,2013-01-18 03:23:00,
2013-01-17 22:33:00,23.0,14.0,-100.00,North,5,4.0,7.0,68,-99.99,,,-99.99,,2013-01-18 03:33:00,
2013-01-17 22:43:00,23.0,14.0,-100.00,North,5,4.0,7.0,68,-99.99,,,-99.99,,2013-01-18 03:43:00,
2013-01-17 23:12:00,22.0,14.0,-100.00,North,5,4.0,6.0,69,-99.99,,,-99.99,,2013-01-18 04:12:00,
2013-01-17 23:22:00,22.0,14.0,-100.00,North,5,4.0,6.0,69,-99.99,,,-99.99,,2013-01-18 04:22:00,
2013-01-17 23:33:00,22.0,14.0,-100.00,North,5,2.0,3.0,70,-99.99,,,-99.99,,2013-01-18 04:33:00,
2013-01-17 23:42:00,22.0,14.0,-100.00,North,5,2.0,3.0,70,-99.99,,,-99.99,,2013-01-18 04:42:00,
2013-01-17 23:53:00,22.0,14.0,-100.00,North,5,2.0,3.0,70,-99.99,,,-99.99,,2013-01-18 04:53:00,